sat.trackr.live / text

‹ back to catalog

AEROCUBE 8D

NORAD 41852 · 2016-067E

PAYLOAD ACTIVE UNKNOWN

§ Identity

Operator
Country
US
Launch date
2016-11-11
Launch site
AFWTR
Launch vehicle
Mass (kg)
RCS (m²)
0.05

Purposes: tech_demo

External: N2YO · Heavens-Above · Gunter

§ Orbital elements

Epoch: 2026-09-19T21:42:08.718912Z

Period
94.39 min
Inclination
98.0513°
Eccentricity
0.0003930
Mean motion
15.25546241 rev/d
Perigee alt
486.4 km
Apogee alt
491.8 km
Semi-major
6,867.3 km
B*
1.8822e-4
RAAN
140.2881°
Arg perigee
143.7037°
Mean anomaly
216.4467°
Rev number
54,050

§ Raw data

AEROCUBE 8D1 41852U 16067E   26262.90426758  .00004691  00000+0  18822-3 0  99922 41852  98.0513 140.2881 0003930 143.7037 216.4467 15.25546241540501

JSON: /api/v1/satellites/41852 · /tle

For live sub-satellite position, see the globe view (requires WebGL).

§ Visibility from observer

Set your observer location to see the next 7 days of passes ≥ 10°. The values pass through the URL so the page stays shareable.

No JS? Fill the form by hand. The geolocation button needs JavaScript.